This is the latest recevied weather packets stored in our database for station/object K4GDX. If no packets are shown the sender has not sent any weather packets the latest 10 day(s).
| Time | Temp. | Humidity | Pressure | Rain* | Wind** | Luminosity | Snow |
|---|---|---|---|---|---|---|---|
| 1777675651 | 25.56° C | 78% | 1009 hPa | 0 mm | - | 53 W/m² | - |
| 1777675350 | 25.56° C | 77% | 1009 hPa | 0 mm | - | 65 W/m² | - |
| 1777675050 | 25.56° C | 76% | 1009 hPa | 0 mm | - | 77 W/m² | - |
| 1777674748 | 25.56° C | 75% | 1008.9 hPa | 0 mm | - | 83 W/m² | - |
| 1777674448 | 25.56° C | 74% | 1009.1 hPa | 0 mm | - | 72 W/m² | - |
| 1777674149 | 25.56° C | 74% | 1009 hPa | 0 mm | - | 69 W/m² | - |
| 1777673850 | 26.11° C | 75% | 1008.9 hPa | 0 mm | - | 60 W/m² | - |
| 1777673547 | 26.11° C | 75% | 1008.9 hPa | 0 mm | - | 81 W/m² | - |
| 1777673246 | 26.11° C | 75% | 1008.9 hPa | 0 mm | - | 116 W/m² | - |
| 1777672932 | 26.11° C | 75% | 1008.8 hPa | 0 mm | - | 127 W/m² | - |
| 1777672629 | 26.11° C | 75% | 1008.8 hPa | 0 mm | - | 172 W/m² | - |
| 1777672330 | 26.67° C | 75% | 1008.7 hPa | 0 mm | - | 93 W/m² | - |
| 1777672032 | 26.67° C | 73% | 1008.7 hPa | 0 mm | - | 174 W/m² | - |
| 1777671729 | 26.67° C | 73% | 1008.8 hPa | 0 mm | - | 123 W/m² | - |
| 1777671428 | 26.67° C | 73% | 1008.7 hPa | 0 mm | - | 90 W/m² | - |
| 1777671129 | 27.22° C | 71% | 1008.7 hPa | 0 mm | - | 116 W/m² | - |
| 1777670828 | 27.78° C | 71% | 1008.6 hPa | 0 mm | - | 95 W/m² | - |
| 1777670525 | 27.78° C | 70% | 1008.5 hPa | 0 mm | - | 171 W/m² | - |
| 1777670228 | 28.33° C | 70% | 1008.3 hPa | 0 mm | - | 193 W/m² | - |
| 1777669920 | 28.89° C | 69% | 1008.3 hPa | 0 mm | - | 192 W/m² | - |
| 1777669619 | 29.44° C | 67% | 1008.3 hPa | 0 mm | - | 295 W/m² | - |
| 1777669321 | 30° C | 70% | 1008.3 hPa | 0 mm | - | 510 W/m² | - |
| 1777669021 | 30° C | 65% | 1008.4 hPa | 0 mm | - | 605 W/m² | - |
| 1777668721 | 30.56° C | 66% | 1008.3 hPa | 0 mm | - | 267 W/m² | - |
| 1777668421 | 30.56° C | 66% | 1008.2 hPa | 0 mm | - | 652 W/m² | - |
* Rain latest hour (hover to see other rain measurements)
** Current wind speed in m/s (hover to see current wind gust speed)